CAPE
50 7 40 14 27 2 0 47 392 532 678 892 1065 962 1051 806 641 875 810 624 679 256
64 172 176 152 116 14 0 0 0 371 708 980 1012 1025 889 932 900 850 628 602 498 476
107 294 350 131 151 266 70 13 201 225 366 965 880 1148 873 1079 763 607 540 610 746 516
178 283 397 483 255 141 472 649 518 408 281 285 390 587 1073 993 945 777 517 381 602 569
113 278 342 413 535 592 831 838 617 516 167 225 2 24 785 1075 1198 957 1018 922 443 316
190 181 315 341 355 435 592 809 866 444 342 254 72 29 275 989 1074 941 808 755 885 797
239 282 340 401 549 665 632 667 760 799 401 232 316 686 1041 1016 972 944 889 779 834 885
210 321 390 439 723 882 931 795 634 702 798 720 685 909 956 898 895 874 862 847 940 990
253 300 467 608 733 987 1063 979 684 725 761 763 1084 1377 1199 906 897 997 1003 1065 971 910
654 521 611 955 946 977 1096 955 783 999 675 715 679 1073 1078 595 812 767 840 881 918 879
1017 1169 978 959 1140 1152 1061 742 865 712 835 786 701 803 879 247 179 399 380 368 395 453
1308 1302 1331 1209 1056 975 499 634 814 641 696 616 967 776 444 51 202 310 304 270 268 305
1315 1504 1327 1265 782 442 557 457 312 302 258 418 596 107 151 31 377 370 248 156 114 137
1376 1463 1412 1010 777 847 804 720 560 485 430 494 456 57 1 1 46 82 86 100 87 2
CIN
-183 -240 -241 -238 -259 -227 0 -142 -149 -132 -129 -115 -104 -103 -106 -109 -112 -95 -106 -112 -138 -204
-174 -160 -182 -183 -224 -326 0 0 0 -157 -126 -123 -116 -108 -123 -104 -90 -97 -106 -107 -140 -128
-191 -151 -165 -227 -233 -221 -268 -115 -225 -194 -201 -148 -143 -111 -126 -102 -117 -123 -128 -119 -104 -105
-213 -180 -169 -176 -240 -258 -179 -158 -171 -179 -208 -195 -180 -152 -111 -118 -116 -104 -129 -141 -112 -91
-267 -196 -185 -185 -196 -188 -122 -136 -149 -178 -244 -205 -15 -89 -133 -97 -90 -93 -84 -83 -144 -139
-285 -264 -220 -201 -213 -211 -169 -123 -114 -186 -194 -185 -221 -42 -195 -109 -88 -90 -92 -94 -83 -93
-308 -288 -243 -204 -180 -167 -175 -139 -125 -131 -189 -200 -166 -129 -108 -107 -94 -85 -84 -89 -87 -75
-366 -336 -274 -241 -177 -168 -146 -148 -145 -131 -130 -140 -129 -103 -105 -100 -83 -78 -76 -79 -81 -81
-369 -326 -300 -269 -233 -188 -165 -163 -167 -139 -130 -123 -84 -80 -72 -100 -95 -88 -75 -66 -75 -82
-278 -266 -275 -238 -232 -200 -167 -175 -168 -147 -165 -152 -170 -90 -71 -133 -108 -108 -98 -98 -97 -103
-263 -231 -231 -233 -219 -191 -170 -180 -127 -121 -122 -159 -181 -161 -135 -251 -246 -166 -173 -184 -173 -153
-311 -279 -236 -221 -226 -216 -245 -186 -137 -78 -73 -134 -132 -165 -216 -358 -235 -186 -190 -206 -194 -167
-240 -231 -285 -241 -267 -293 -233 -221 -213 -152 -160 -162 -142 -271 -229 -279 -136 -144 -182 -201 -222 -205
-283 -220 -226 -298 -282 -227 -196 -172 -164 -123 -125 -111 -134 -166 0 0 -252 -232 -225 -216 -228 -107
Wind_Speed
7 5 5 5 4 4 4 4 4 5 5 6 5 5 5 3 3 3 3 4 4 3
7 7 7 7 5 4 4 4 5 6 6 6 6 6 6 4 4 3 2 3 4 3
9 7 7 5 6 6 6 5 5 5 5 4 5 6 6 4 3 4 3 2 3 2
8 8 7 6 6 6 4 6 6 6 5 6 6 6 5 5 5 5 4 3 4 5
7 8 8 8 7 6 6 5 6 6 6 6 5 6 6 6 5 6 6 6 4 6
9 9 10 9 7 6 6 6 5 6 7 7 7 6 7 6 6 6 6 6 6 6
12 12 11 10 7 7 7 7 6 7 7 8 7 7 6 6 6 6 6 6 6 6
12 11 10 9 8 7 7 8 7 7 6 6 6 6 6 6 6 7 7 6 6 6
10 12 12 12 9 9 9 8 6 8 9 8 7 10 12 9 7 7 6 7 6 6
12 12 12 12 9 10 9 7 8 9 8 10 9 12 12 13 5 5 6 6 6 6
13 14 11 9 10 10 6 7 3 5 8 8 8 11 11 9 6 5 7 7 6 6
14 13 10 11 11 7 6 6 7 9 12 7 6 9 8 6 5 5 7 6 6 7
9 10 12 11 9 5 5 6 7 9 10 8 5 3 6 7 3 5 4 5 6 7
10 12 10 10 6 7 6 6 6 6 5 4 3 3 5 6 3 4 3 5 4 3
Wind_Direction
192 184 201 205 200 202 197 211 203 203 215 222 208 210 205 205 224 229 213 217 226 203
197 192 209 214 206 206 207 214 227 224 213 220 212 199 200 219 224 233 236 245 209 209
200 198 210 194 210 209 208 216 217 225 243 233 228 214 194 216 235 232 257 224 200 240
198 202 211 206 203 214 221 211 215 223 214 228 222 231 216 224 223 226 234 246 207 245
185 198 207 222 220 196 217 216 217 213 192 225 227 233 229 224 212 228 228 242 233 241
191 190 207 218 220 225 210 225 224 209 204 205 218 221 221 219 228 225 234 240 233 242
201 202 210 213 200 214 211 208 212 215 210 207 213 220 220 213 229 241 238 249 243 253
199 192 196 200 198 199 213 216 209 213 216 215 215 217 211 220 220 232 248 246 248 244
192 203 202 199 191 192 210 219 198 205 208 209 219 216 220 205 213 224 233 253 262 257
189 203 213 205 191 203 208 206 209 218 210 218 219 208 215 218 222 219 229 232 244 260
189 195 199 196 201 211 202 186 190 297 260 219 221 205 209 211 212 223 234 233 241 239
191 190 187 193 203 199 181 179 154 238 262 239 222 194 224 175 196 221 243 238 239 244
205 208 187 199 176 177 172 180 166 183 211 236 231 139 182 186 190 219 227 248 251 241
184 194 196 172 162 165 161 148 160 166 174 184 192 168 199 191 206 224 248 265 263 232